• En España
  • Lista de países
  • Para 7 días
  • Temperatura del agua
  • Mapa Satelital
  • El tiempo en el mapa
  • Informadores
  • user-avatar
    Iniciar sesión

    Tiempo cada hora Katerevo

    Hoy, 23 Octubre, Martes

    Tiempo Temperatura Precipitaciones Viento Presión Humedad
    00:00 +4°C° 0 mm 2 mps 744 mmHg 79%
    01:00 +4°C° 0 mm 2 mps 744 mmHg 80%
    02:00 +3°C° 0 mm 2 mps 743 mmHg 81%
    03:00 +3°C° 0 mm 2 mps 742 mmHg 82%
    04:00 +2°C° 0 mm 3 mps 742 mmHg 83%
    05:00 +1°C° 0 mm 3 mps 741 mmHg 84%
    06:00 +1°C° 0 mm 3 mps 740 mmHg 85%
    07:00 +2°C° 0 mm 3 mps 740 mmHg 83%
    08:00 +1°C° 0 mm 4 mps 740 mmHg 80%
    09:00 +3°C° 0 mm 4 mps 739 mmHg 78%
    10:00 +3°C° 0 mm 5 mps 739 mmHg 75%
    11:00 +5°C° 0 mm 5 mps 738 mmHg 71%
    12:00 +6°C° 0 mm 5 mps 738 mmHg 67%
    13:00 +6°C° 0 mm 5 mps 737 mmHg 68%
    14:00 +7°C° 0 mm 5 mps 737 mmHg 68%
    15:00 +7°C° 0 mm 5 mps 736 mmHg 69%
    16:00 +6°C° 0 mm 5 mps 736 mmHg 72%
    17:00 +6°C° 0 mm 4 mps 735 mmHg 76%
    18:00 +5°C° 0 mm 4 mps 734 mmHg 79%
    19:00 +5°C° 0.1 mm 4 mps 734 mmHg 81%
    20:00 +5°C° 0.1 mm 4 mps 733 mmHg 82%
    21:00 +5°C° 0.1 mm 4 mps 733 mmHg 84%
    22:00 +4°C° 0 mm 4 mps 732 mmHg 84%
    23:00 +4°C° 0 mm 4 mps 731 mmHg 84%

    Mañana, 24 Octubre, Miércoles

    Tiempo Temperatura Precipitaciones Viento Presión Humedad
    00:00 +4°C° 0 mm 4 mps 731 mmHg 84%
    01:00 +3°C° 0.1 mm 5 mps 730 mmHg 82%
    02:00 +3°C° 0.1 mm 5 mps 729 mmHg 80%
    03:00 +3°C° 0.1 mm 5 mps 728 mmHg 78%
    04:00 +3°C° 0.1 mm 5 mps 727 mmHg 78%
    05:00 +3°C° 0.1 mm 5 mps 726 mmHg 78%
    06:00 +3°C° 0.1 mm 5 mps 726 mmHg 79%
    07:00 +3°C° 0.2 mm 6 mps 725 mmHg 78%
    08:00 +3°C° 0.2 mm 6 mps 724 mmHg 78%
    09:00 +4°C° 0.2 mm 6 mps 724 mmHg 78%
    10:00 +4°C° 0.5 mm 7 mps 723 mmHg 79%
    11:00 +4°C° 0.5 mm 7 mps 723 mmHg 80%
    12:00 +5°C° 0.5 mm 7 mps 722 mmHg 82%
    13:00 +5°C° 0.6 mm 7 mps 722 mmHg 81%
    14:00 +5°C° 0.6 mm 6 mps 722 mmHg 81%
    15:00 +7°C° 0.6 mm 6 mps 721 mmHg 80%
    16:00 +6°C° 0.2 mm 5 mps 721 mmHg 83%
    17:00 +6°C° 0.2 mm 4 mps 721 mmHg 85%
    18:00 +6°C° 0.2 mm 4 mps 721 mmHg 88%
    19:00 +7°C° 0.7 mm 3 mps 721 mmHg 89%
    20:00 +5°C° 0.7 mm 3 mps 721 mmHg 91%
    21:00 +5°C° 0.7 mm 3 mps 721 mmHg 93%
    22:00 +6°C° 0.5 mm 2 mps 721 mmHg 94%
    23:00 +6°C° 0.5 mm 2 mps 720 mmHg 95%

    Pasado mañana, 25 Octubre, Jueves

    Tiempo Temperatura Precipitaciones Viento Presión Humedad
    00:00 +7°C° 0.5 mm 1 mps 720 mmHg 96%
    01:00 +6°C° 1.3 mm 2 mps 720 mmHg 96%
    02:00 +5°C° 1.3 mm 3 mps 719 mmHg 96%
    03:00 +5°C° 1.3 mm 4 mps 718 mmHg 96%
    04:00 +5°C° 3.5 mm 4 mps 718 mmHg 95%
    05:00 +5°C° 3.5 mm 5 mps 717 mmHg 94%
    06:00 +4°C° 3.5 mm 6 mps 716 mmHg 93%
    07:00 +4°C° 1 mm 6 mps 716 mmHg 91%
    08:00 +4°C° 1 mm 6 mps 715 mmHg 89%
    09:00 +4°C° 1 mm 6 mps 715 mmHg 87%
    10:00 +4°C° 1 mm 7 mps 715 mmHg 86%
    11:00 +4°C° 1 mm 7 mps 715 mmHg 85%
    12:00 +2°C° 1 mm 8 mps 715 mmHg 84%
    13:00 +2°C° 1 mm 9 mps 716 mmHg 82%
    14:00 +2°C° 1 mm 9 mps 717 mmHg 81%
    15:00 +1°C° 1 mm 10 mps 718 mmHg 79%
    16:00 +1°C° 0.2 mm 10 mps 719 mmHg 78%
    17:00 +1°C° 0.2 mm 9 mps 720 mmHg 78%
    18:00 0°C° 0.2 mm 9 mps 721 mmHg 77%
    19:00 0°C° 0 mm 8 mps 722 mmHg 76%
    20:00 0°C° 0 mm 7 mps 723 mmHg 76%
    21:00 0°C° 0 mm 7 mps 724 mmHg 75%
    22:00 0°C° 0 mm 7 mps 725 mmHg 76%
    23:00 +1°C° 0 mm 6 mps 725 mmHg 76%

    26 Octubre, Viernes

    Tiempo Temperatura Precipitaciones Viento Presión Humedad
    00:00 +1°C° 0 mm 6 mps 726 mmHg 77%
    01:00 +1°C° 0 mm 6 mps 726 mmHg 77%
    02:00 -1°C° 0 mm 6 mps 726 mmHg 77%
    03:00 -1°C° 0 mm 6 mps 727 mmHg 77%
    04:00 -1°C° 0 mm 6 mps 728 mmHg 79%
    05:00 -1°C° 0 mm 6 mps 728 mmHg 80%
    06:00 -1°C° 0 mm 6 mps 729 mmHg 82%
    07:00 -1°C° 0 mm 6 mps 729 mmHg 82%
    08:00 -1°C° 0 mm 6 mps 730 mmHg 81%
    09:00 -1°C° 0 mm 6 mps 731 mmHg 81%
    10:00 -1°C° 0 mm 6 mps 731 mmHg 80%
    11:00 +1°C° 0 mm 6 mps 732 mmHg 79%
    12:00 +1°C° 0 mm 5 mps 732 mmHg 77%
    13:00 +2°C° 0 mm 5 mps 733 mmHg 75%
    14:00 +2°C° 0 mm 5 mps 733 mmHg 73%
    15:00 +3°C° 0 mm 5 mps 734 mmHg 71%
    16:00 +2°C° 0.1 mm 5 mps 734 mmHg 74%
    17:00 +3°C° 0.1 mm 4 mps 734 mmHg 77%
    18:00 +3°C° 0.1 mm 4 mps 735 mmHg 80%
    19:00 +1°C° 0.1 mm 4 mps 735 mmHg 82%
    20:00 +1°C° 0.1 mm 4 mps 736 mmHg 83%
    21:00 +1°C° 0.1 mm 4 mps 736 mmHg 85%
    22:00 +1°C° 0 mm 4 mps 737 mmHg 84%
    23:00 +1°C° 0 mm 4 mps 737 mmHg 83%

    27 Octubre, Sábado

    Tiempo Temperatura Precipitaciones Viento Presión Humedad
    00:00 +1°C° 0 mm 4 mps 738 mmHg 83%
    01:00 0°C° 0 mm 4 mps 738 mmHg 84%
    02:00 0°C° 0 mm 4 mps 739 mmHg 85%
    03:00 0°C° 0 mm 4 mps 739 mmHg 86%
    04:00 0°C° 0 mm 4 mps 740 mmHg 88%
    05:00 -1°C° 0 mm 4 mps 740 mmHg 90%
    06:00 -1°C° 0 mm 4 mps 741 mmHg 93%
    07:00 -1°C° 0 mm 4 mps 741 mmHg 92%
    08:00 0°C° 0 mm 4 mps 741 mmHg 90%
    09:00 0°C° 0 mm 4 mps 742 mmHg 89%
    10:00 +1°C° 0 mm 4 mps 742 mmHg 85%
    11:00 +2°C° 0 mm 5 mps 742 mmHg 81%
    12:00 +5°C° 0 mm 5 mps 742 mmHg 77%
    13:00 +5°C° 0 mm 5 mps 742 mmHg 76%
    14:00 +5°C° 0 mm 5 mps 742 mmHg 76%
    15:00 +5°C° 0 mm 6 mps 742 mmHg 75%
    16:00 +6°C° 0 mm 5 mps 742 mmHg 77%
    17:00 +5°C° 0 mm 5 mps 742 mmHg 79%
    18:00 +5°C° 0 mm 5 mps 742 mmHg 81%
    19:00 +5°C° 0 mm 5 mps 741 mmHg 81%
    20:00 +4°C° 0 mm 6 mps 741 mmHg 81%
    21:00 +4°C° 0 mm 6 mps 741 mmHg 81%
    22:00 +4°C° 0 mm 6 mps 740 mmHg 83%
    23:00 +4°C° 0 mm 6 mps 740 mmHg 86%

    28 Octubre, Domingo

    Tiempo Temperatura Precipitaciones Viento Presión Humedad
    00:00 +4°C° 0 mm 6 mps 740 mmHg 88%
    01:00 +5°C° 0.3 mm 6 mps 740 mmHg 89%
    02:00 +5°C° 0.3 mm 6 mps 739 mmHg 91%
    03:00 +7°C° 0.3 mm 6 mps 739 mmHg 92%
    04:00 +7°C° 0.1 mm 6 mps 739 mmHg 92%
    05:00 +8°C° 0.1 mm 6 mps 738 mmHg 93%
    06:00 +8°C° 0.1 mm 6 mps 738 mmHg 93%
    07:00 +9°C° 0.1 mm 6 mps 738 mmHg 92%
    08:00 +9°C° 0.1 mm 7 mps 738 mmHg 92%
    09:00 +9°C° 0.1 mm 7 mps 738 mmHg 91%
    10:00 +10°C° 0.1 mm 7 mps 738 mmHg 89%
    11:00 +10°C° 0.1 mm 8 mps 738 mmHg 87%
    12:00 +10°C° 0.1 mm 8 mps 738 mmHg 85%
    13:00 +11°C° 0 mm 8 mps 738 mmHg 83%
    14:00 +11°C° 0 mm 8 mps 738 mmHg 81%
    15:00 +12°C° 0 mm 7 mps 738 mmHg 80%
    16:00 +12°C° 0 mm 7 mps 738 mmHg 80%
    17:00 +11°C° 0 mm 7 mps 737 mmHg 80%
    18:00 +11°C° 0 mm 7 mps 737 mmHg 80%
    19:00 +12°C° 0.1 mm 7 mps 737 mmHg 79%
    20:00 +12°C° 0.1 mm 7 mps 737 mmHg 79%
    21:00 +12°C° 0.1 mm 7 mps 737 mmHg 79%
    22:00 +12°C° 0.1 mm 7 mps 737 mmHg 80%
    23:00 +12°C° 0.1 mm 7 mps 737 mmHg 82%

    29 Octubre, Lunes

    Tiempo Temperatura Precipitaciones Viento Presión Humedad
    00:00 +12°C° 0.1 mm 7 mps 738 mmHg 83%
    01:00 +12°C° 0.3 mm 7 mps 738 mmHg 85%
    02:00 +12°C° 0.3 mm 7 mps 738 mmHg 87%
    03:00 +13°C° 0.3 mm 6 mps 738 mmHg 88%
    04:00 +13°C° 0 mm 6 mps 739 mmHg 88%
    05:00 +11°C° 0 mm 6 mps 739 mmHg 88%
    06:00 +11°C° 0 mm 6 mps 740 mmHg 88%
    07:00 +10°C° 0 mm 6 mps 741 mmHg 85%
    08:00 +9°C° 0 mm 6 mps 742 mmHg 82%
    09:00 +8°C° 0 mm 6 mps 743 mmHg 79%
    10:00 +8°C° 0 mm 5 mps 744 mmHg 75%
    11:00 +8°C° 0 mm 5 mps 745 mmHg 72%
    12:00 +7°C° 0 mm 4 mps 745 mmHg 68%
    13:00 +8°C° 0 mm 4 mps 746 mmHg 67%
    14:00 +9°C° 0 mm 3 mps 746 mmHg 65%
    15:00 +9°C° 0 mm 3 mps 747 mmHg 64%
    16:00 +8°C° 0 mm 2 mps 747 mmHg 67%
    17:00 +9°C° 0 mm 1 mps 748 mmHg 70%
    18:00 +9°C° 0 mm 1 mps 748 mmHg 73%
    19:00 +9°C° 0.1 mm 1 mps 748 mmHg 74%
    20:00 +7°C° 0.1 mm 0 mps 749 mmHg 75%
    21:00 +7°C° 0.1 mm 0 mps 749 mmHg 77%
    22:00 +8°C° 0.2 mm 1 mps 749 mmHg 78%
    23:00 +8°C° 0.2 mm 1 mps 749 mmHg 79%
    Mostrar más